Time,TemperatureF,DewpointF,PressureIn,WindDirection,WindDirectionDegrees,WindSpeedMPH,WindSpeedGustMPH,Humidity,HourlyPrecipIn,Conditions,Clouds,dailyrainin,SoftwareType,DateUTC
2013-06-25 00:01:00,71.2,68.4,29.88,NNW,336,1.0,1.0,91,0.00,,,0.00,Wunderground v.1.15,2013-06-25 04:01:00,
2013-06-25 00:02:00,71.2,68.4,29.88,NNW,336,1.0,1.0,91,0.00,,,0.00,Wunderground v.1.15,2013-06-25 04:02:00,
2013-06-25 00:03:00,71.2,68.4,29.88,NNW,336,1.0,1.0,91,0.00,,,0.00,Wunderground v.1.15,2013-06-25 04:03:00,
2013-06-25 00:08:00,71.2,68.4,29.87,NNW,336,1.0,2.0,91,0.00,,,0.00,Wunderground v.1.15,2013-06-25 04:08:00,
2013-06-25 00:10:00,71.2,68.4,29.87,NNW,336,1.0,1.0,91,0.00,,,0.00,Wunderground v.1.15,2013-06-25 04:10:00,
2013-06-25 00:15:00,71.1,68.3,29.87,NNW,336,1.0,1.0,91,0.00,,,0.00,Wunderground v.1.15,2013-06-25 04:15:00,
2013-06-25 00:21:00,71.2,68.4,29.87,NNW,336,1.0,1.0,91,0.00,,,0.00,Wunderground v.1.15,2013-06-25 04:21:00,
2013-06-25 00:27:00,71.2,68.4,29.87,NNW,336,0.0,1.0,91,0.00,,,0.00,Wunderground v.1.15,2013-06-25 04:27:00,
2013-06-25 00:32:00,71.2,68.4,29.87,NNW,336,0.0,0.0,91,0.00,,,0.00,Wunderground v.1.15,2013-06-25 04:32:00,
2013-06-25 00:37:00,71.3,68.5,29.87,NNW,336,0.0,0.0,91,0.00,,,0.00,Wunderground v.1.15,2013-06-25 04:37:00,
2013-06-25 00:42:00,71.2,68.4,29.87,NNW,336,0.0,0.0,91,0.00,,,0.00,Wunderground v.1.15,2013-06-25 04:42:00,
2013-06-25 00:47:00,71.3,68.5,29.87,NNW,336,0.0,0.0,91,0.00,,,0.00,Wunderground v.1.15,2013-06-25 04:47:00,
2013-06-25 00:53:00,71.6,68.8,29.87,NNW,336,0.0,2.0,91,0.00,,,0.00,Wunderground v.1.15,2013-06-25 04:53:00,
2013-06-25 00:58:00,71.9,68.8,29.87,NNW,336,1.0,2.0,90,0.00,,,0.00,Wunderground v.1.15,2013-06-25 04:58:00,
2013-06-25 01:03:00,72.2,69.1,29.87,NNW,336,1.0,2.0,90,0.00,,,0.00,Wunderground v.1.15,2013-06-25 05:03:00,
2013-06-25 01:09:00,72.8,69.0,29.87,SW,225,2.0,5.0,88,0.00,,,0.00,Wunderground v.1.15,2013-06-25 05:09:00,
2013-06-25 01:15:00,73.5,68.7,29.86,SW,230,4.0,5.0,85,0.00,,,0.00,Wunderground v.1.15,2013-06-25 05:15:00,
2013-06-25 01:20:00,73.8,68.3,29.86,WSW,242,4.0,4.0,83,0.00,,,0.00,Wunderground v.1.15,2013-06-25 05:20:00,
2013-06-25 01:25:00,74.0,68.2,29.86,WSW,256,4.0,5.0,82,0.00,,,0.00,Wunderground v.1.15,2013-06-25 05:25:00,
2013-06-25 01:31:00,74.1,67.9,29.86,WSW,240,4.0,4.0,81,0.00,,,0.00,Wunderground v.1.15,2013-06-25 05:31:00,
2013-06-25 01:36:00,74.1,67.2,29.86,WSW,253,5.0,9.0,79,0.00,,,0.00,Wunderground v.1.15,2013-06-25 05:36:00,
2013-06-25 01:42:00,74.1,67.2,29.86,WSW,242,5.0,6.0,79,0.00,,,0.00,Wunderground v.1.15,2013-06-25 05:42:00,
2013-06-25 01:47:00,74.0,66.7,29.86,SW,234,5.0,6.0,78,0.00,,,0.00,Wunderground v.1.15,2013-06-25 05:47:00,
2013-06-25 01:52:00,74.0,66.7,29.86,WSW,239,5.0,6.0,78,0.00,,,0.00,Wunderground v.1.15,2013-06-25 05:52:00,
2013-06-25 01:58:00,73.8,66.5,29.86,WSW,240,5.0,9.0,78,0.00,,,0.00,Wunderground v.1.15,2013-06-25 05:58:00,
2013-06-25 02:03:00,73.7,66.0,29.86,South,185,5.0,8.0,77,0.00,,,0.00,Wunderground v.1.15,2013-06-25 06:03:00,
2013-06-25 02:08:00,73.6,65.6,29.86,SW,236,6.0,9.0,76,0.00,,,0.00,Wunderground v.1.15,2013-06-25 06:08:00,
2013-06-25 02:13:00,73.5,65.5,29.86,SW,227,6.0,7.0,76,0.00,,,0.00,Wunderground v.1.15,2013-06-25 06:13:00,
2013-06-25 02:19:00,73.4,65.4,29.87,West,259,5.0,9.0,76,0.00,,,0.00,Wunderground v.1.15,2013-06-25 06:19:00,
2013-06-25 02:24:00,73.2,65.2,29.87,WSW,254,4.0,7.0,76,0.00,,,0.00,Wunderground v.1.15,2013-06-25 06:24:00,
2013-06-25 02:29:00,73.0,65.0,29.86,WSW,256,4.0,7.0,76,0.00,,,0.00,Wunderground v.1.15,2013-06-25 06:29:00,
2013-06-25 02:35:00,72.8,65.2,29.87,SW,234,4.0,6.0,77,0.00,,,0.00,Wunderground v.1.15,2013-06-25 06:35:00,
2013-06-25 02:40:00,72.6,65.0,29.86,WSW,252,5.0,5.0,77,0.00,,,0.00,Wunderground v.1.15,2013-06-25 06:40:00,
2013-06-25 02:46:00,72.4,65.2,29.86,WSW,247,4.0,6.0,78,0.00,,,0.00,Wunderground v.1.15,2013-06-25 06:46:00,
2013-06-25 02:51:00,72.2,65.3,29.86,WSW,252,3.0,3.0,79,0.00,,,0.00,Wunderground v.1.15,2013-06-25 06:51:00,
2013-06-25 02:57:00,71.9,65.4,29.86,West,259,3.0,5.0,80,0.00,,,0.00,Wunderground v.1.15,2013-06-25 06:57:00,
2013-06-25 03:02:00,71.7,65.2,29.86,SW,234,3.0,3.0,80,0.00,,,0.00,Wunderground v.1.15,2013-06-25 07:02:00,
2013-06-25 03:08:00,71.5,65.4,29.86,SW,234,3.0,5.0,81,0.00,,,0.00,Wunderground v.1.15,2013-06-25 07:08:00,
2013-06-25 03:13:00,71.2,65.1,29.86,WSW,242,2.0,4.0,81,0.00,,,0.00,Wunderground v.1.15,2013-06-25 07:13:00,
2013-06-25 03:18:00,71.1,65.3,29.85,WSW,254,3.0,5.0,82,0.00,,,0.00,Wunderground v.1.15,2013-06-25 07:18:00,
2013-06-25 03:24:00,70.9,65.1,29.86,West,270,5.0,11.0,82,0.00,,,0.00,Wunderground v.1.15,2013-06-25 07:24:00,
2013-06-25 03:29:00,70.8,65.0,29.86,West,275,5.0,11.0,82,0.00,,,0.00,Wunderground v.1.15,2013-06-25 07:29:00,
2013-06-25 03:34:00,70.7,64.6,29.85,WSW,252,4.0,7.0,81,0.00,,,0.00,Wunderground v.1.15,2013-06-25 07:34:00,
2013-06-25 03:40:00,70.6,64.5,29.85,WSW,246,5.0,5.0,81,0.00,,,0.00,Wunderground v.1.15,2013-06-25 07:40:00,
2013-06-25 03:45:00,70.6,64.5,29.85,West,277,4.0,5.0,81,0.00,,,0.00,Wunderground v.1.15,2013-06-25 07:45:00,
2013-06-25 03:50:00,70.5,64.7,29.85,WSW,240,5.0,10.0,82,0.00,,,0.00,Wunderground v.1.15,2013-06-25 07:50:00,
2013-06-25 03:56:00,70.4,64.6,29.85,SW,217,5.0,10.0,82,0.00,,,0.00,Wunderground v.1.15,2013-06-25 07:56:00,
2013-06-25 04:01:00,70.3,64.5,29.85,WSW,245,5.0,11.0,82,0.00,,,0.00,Wunderground v.1.15,2013-06-25 08:01:00,
2013-06-25 04:06:00,70.1,64.3,29.85,WSW,252,5.0,11.0,82,0.00,,,0.00,Wunderground v.1.15,2013-06-25 08:06:00,
2013-06-25 04:12:00,69.9,64.5,29.85,SSW,211,5.0,8.0,83,0.00,,,0.00,Wunderground v.1.15,2013-06-25 08:12:00,
2013-06-25 04:17:00,69.8,64.4,29.86,WSW,240,5.0,8.0,83,0.00,,,0.00,Wunderground v.1.15,2013-06-25 08:17:00,
2013-06-25 04:23:00,69.6,64.5,29.86,SW,234,5.0,5.0,84,0.00,,,0.00,Wunderground v.1.15,2013-06-25 08:23:00,
2013-06-25 04:28:00,69.5,64.5,29.87,SW,231,6.0,8.0,84,0.00,,,0.00,Wunderground v.1.15,2013-06-25 08:28:00,
2013-06-25 04:33:00,69.4,64.4,29.87,West,260,6.0,8.0,84,0.00,,,0.00,Wunderground v.1.15,2013-06-25 08:33:00,
2013-06-25 04:39:00,69.3,64.6,29.87,West,267,5.0,9.0,85,0.00,,,0.00,Wunderground v.1.15,2013-06-25 08:39:00,
2013-06-25 04:44:00,69.3,64.6,29.87,WSW,240,5.0,11.0,85,0.00,,,0.00,Wunderground v.1.15,2013-06-25 08:44:00,
2013-06-25 04:49:00,69.2,64.5,29.87,SW,225,6.0,11.0,85,0.00,,,0.00,Wunderground v.1.15,2013-06-25 08:49:00,
2013-06-25 04:54:00,69.1,64.4,29.88,SW,221,7.0,11.0,85,0.00,,,0.00,Wunderground v.1.15,2013-06-25 08:54:00,
2013-06-25 05:00:00,69.1,64.4,29.88,WSW,248,6.0,6.0,85,0.00,,,0.00,Wunderground v.1.15,2013-06-25 09:00:00,
2013-06-25 05:06:00,69.0,64.3,29.88,West,271,5.0,6.0,85,0.00,,,0.00,Wunderground v.1.15,2013-06-25 09:06:00,
2013-06-25 05:12:00,69.0,64.3,29.87,WSW,244,5.0,5.0,85,0.00,,,0.00,Wunderground v.1.15,2013-06-25 09:12:00,
2013-06-25 05:17:00,69.0,64.6,29.87,WSW,242,5.0,6.0,86,0.00,,,0.00,Wunderground v.1.15,2013-06-25 09:17:00,
2013-06-25 05:22:00,68.9,64.5,29.87,WSW,257,5.0,11.0,86,0.00,,,0.00,Wunderground v.1.15,2013-06-25 09:22:00,
2013-06-25 05:28:00,68.8,64.4,29.87,West,264,5.0,11.0,86,0.00,,,0.00,Wunderground v.1.15,2013-06-25 09:28:00,
2013-06-25 05:33:00,68.7,64.3,29.87,WSW,248,5.0,8.0,86,0.00,,,0.00,Wunderground v.1.15,2013-06-25 09:33:00,
2013-06-25 05:38:00,68.6,64.6,29.88,SW,234,4.0,8.0,87,0.00,,,0.00,Wunderground v.1.15,2013-06-25 09:38:00,
2013-06-25 05:44:00,68.5,64.5,29.88,WSW,245,4.0,9.0,87,0.00,,,0.00,Wunderground v.1.15,2013-06-25 09:44:00,
2013-06-25 05:49:00,68.5,64.5,29.88,WSW,253,4.0,9.0,87,0.00,,,0.00,Wunderground v.1.15,2013-06-25 09:49:00,
2013-06-25 05:54:00,68.4,64.4,29.88,West,260,4.0,6.0,87,0.00,,,0.00,Wunderground v.1.15,2013-06-25 09:54:00,
2013-06-25 06:00:00,68.4,64.4,29.88,WSW,248,4.0,4.0,87,0.00,,,0.00,Wunderground v.1.15,2013-06-25 10:00:00,
2013-06-25 06:06:00,68.4,64.4,29.88,WSW,254,4.0,6.0,87,0.00,,,0.00,Wunderground v.1.15,2013-06-25 10:06:00,
2013-06-25 06:12:00,68.5,64.5,29.88,West,265,4.0,6.0,87,0.00,,,0.00,Wunderground v.1.15,2013-06-25 10:12:00,
2013-06-25 06:17:00,68.5,64.5,29.88,West,263,4.0,6.0,87,0.00,,,0.00,Wunderground v.1.15,2013-06-25 10:17:00,
2013-06-25 06:23:00,68.5,64.5,29.88,WSW,250,3.0,7.0,87,0.00,,,0.00,Wunderground v.1.15,2013-06-25 10:23:00,
2013-06-25 06:28:00,68.7,64.7,29.89,West,272,4.0,7.0,87,0.00,,,0.00,Wunderground v.1.15,2013-06-25 10:28:00,
2013-06-25 06:33:00,69.0,65.0,29.88,West,271,5.0,6.0,87,0.00,,,0.00,Wunderground v.1.15,2013-06-25 10:33:00,
2013-06-25 06:38:00,69.2,64.8,29.89,WSW,250,5.0,10.0,86,0.00,,,0.00,Wunderground v.1.15,2013-06-25 10:38:00,
2013-06-25 06:44:00,69.5,65.1,29.88,West,271,4.0,9.0,86,0.00,,,0.00,Wunderground v.1.15,2013-06-25 10:44:00,
2013-06-25 06:49:00,69.7,65.0,29.89,WSW,242,5.0,9.0,85,0.00,,,0.00,Wunderground v.1.15,2013-06-25 10:49:00,
2013-06-25 06:55:00,69.8,65.1,29.89,West,263,4.0,7.0,85,0.00,,,0.00,Wunderground v.1.15,2013-06-25 10:55:00,
2013-06-25 07:00:00,69.9,65.2,29.89,West,269,4.0,4.0,85,0.00,,,0.00,Wunderground v.1.15,2013-06-25 11:00:00,
2013-06-25 07:06:00,70.0,65.3,29.89,WNW,282,5.0,8.0,85,0.00,,,0.00,Wunderground v.1.15,2013-06-25 11:06:00,
2013-06-25 07:11:00,70.1,65.4,29.89,West,280,5.0,6.0,85,0.00,,,0.00,Wunderground v.1.15,2013-06-25 11:11:00,
2013-06-25 07:16:00,70.3,65.6,29.89,WNW,289,5.0,7.0,85,0.00,,,0.00,Wunderground v.1.15,2013-06-25 11:16:00,
2013-06-25 07:22:00,70.5,65.8,29.90,West,260,4.0,7.0,85,0.00,,,0.00,Wunderground v.1.15,2013-06-25 11:22:00,
2013-06-25 07:27:00,70.6,65.5,29.90,West,263,5.0,12.0,84,0.00,,,0.00,Wunderground v.1.15,2013-06-25 11:27:00,
2013-06-25 07:32:00,70.7,65.6,29.91,NW,308,7.0,11.0,84,0.00,,,0.00,Wunderground v.1.15,2013-06-25 11:32:00,
2013-06-25 07:38:00,70.8,65.7,29.91,West,277,7.0,16.0,84,0.00,,,0.00,Wunderground v.1.15,2013-06-25 11:38:00,
2013-06-25 07:43:00,71.0,65.9,29.91,West,280,9.0,19.0,84,0.00,,,0.00,Wunderground v.1.15,2013-06-25 11:43:00,
2013-06-25 07:49:00,70.8,66.1,29.92,West,263,9.0,20.0,85,0.00,,,0.01,Wunderground v.1.15,2013-06-25 11:49:00,
2013-06-25 07:54:00,70.4,66.0,29.92,WSW,256,9.0,14.0,86,0.12,,,0.02,Wunderground v.1.15,2013-06-25 11:54:00,
2013-06-25 08:00:00,69.7,65.7,29.93,SSW,210,9.0,9.0,87,0.19,,,0.04,Wunderground v.1.15,2013-06-25 12:00:00,
2013-06-25 08:06:00,69.3,65.9,29.93,West,266,9.0,16.0,89,0.10,,,0.04,Wunderground v.1.15,2013-06-25 12:06:00,
2013-06-25 08:12:00,69.0,65.9,29.93,WSW,239,10.0,12.0,90,0.17,,,0.06,Wunderground v.1.15,2013-06-25 12:12:00,
2013-06-25 08:17:00,68.7,65.6,29.93,WSW,247,10.0,17.0,90,0.25,,,0.09,Wunderground v.1.15,2013-06-25 12:17:00,
2013-06-25 08:22:00,68.5,65.8,29.93,WSW,247,10.0,10.0,91,0.21,,,0.11,Wunderground v.1.15,2013-06-25 12:22:00,
2013-06-25 08:28:00,68.3,65.6,29.90,SW,215,7.0,10.0,91,0.16,,,0.13,Wunderground v.1.15,2013-06-25 12:28:00,
2013-06-25 08:33:00,68.2,65.8,29.90,West,262,5.0,6.0,92,0.20,,,0.14,Wunderground v.1.15,2013-06-25 12:33:00,
2013-06-25 08:39:00,68.1,65.7,29.87,WSW,240,3.0,6.0,92,0.11,,,0.15,Wunderground v.1.15,2013-06-25 12:39:00,
2013-06-25 08:45:00,68.3,66.2,29.89,WNW,302,1.0,5.0,93,0.06,,,0.15,Wunderground v.1.15,2013-06-25 12:45:00,
2013-06-25 08:50:00,68.2,66.1,29.89,WNW,303,2.0,3.0,93,0.04,,,0.16,Wunderground v.1.15,2013-06-25 12:50:00,
2013-06-25 08:55:00,68.1,66.3,29.88,WNW,303,2.0,3.0,94,0.04,,,0.16,Wunderground v.1.15,2013-06-25 12:55:00,
2013-06-25 09:00:00,68.0,66.2,29.88,WNW,303,1.0,1.0,94,0.04,,,0.16,Wunderground v.1.15,2013-06-25 13:00:00,
2013-06-25 09:05:00,68.1,66.3,29.88,WNW,303,1.0,1.0,94,0.04,,,0.16,Wunderground v.1.15,2013-06-25 13:05:00,
2013-06-25 09:11:00,68.2,66.4,29.89,WNW,301,1.0,2.0,94,0.00,,,0.16,Wunderground v.1.15,2013-06-25 13:11:00,
2013-06-25 09:17:00,68.4,66.6,29.90,WNW,282,2.0,4.0,94,0.00,,,0.16,Wunderground v.1.15,2013-06-25 13:17:00,
2013-06-25 09:22:00,68.5,66.7,29.91,WSW,257,3.0,6.0,94,0.00,,,0.16,Wunderground v.1.15,2013-06-25 13:22:00,
2013-06-25 09:28:00,68.7,66.9,29.91,West,279,4.0,6.0,94,0.00,,,0.16,Wunderground v.1.15,2013-06-25 13:28:00,
2013-06-25 09:33:00,68.7,66.9,29.90,SW,232,3.0,8.0,94,0.00,,,0.16,Wunderground v.1.15,2013-06-25 13:33:00,
2013-06-25 09:39:00,68.8,67.0,29.91,WSW,251,4.0,8.0,94,0.00,,,0.16,Wunderground v.1.15,2013-06-25 13:39:00,
2013-06-25 09:44:00,68.9,66.8,29.91,West,265,5.0,7.0,93,0.00,,,0.16,Wunderground v.1.15,2013-06-25 13:44:00,
2013-06-25 09:49:00,69.0,66.9,29.91,WSW,253,4.0,7.0,93,0.00,,,0.16,Wunderground v.1.15,2013-06-25 13:49:00,
2013-06-25 09:54:00,69.0,66.9,29.92,West,271,5.0,8.0,93,0.00,,,0.16,Wunderground v.1.15,2013-06-25 13:54:00,
2013-06-25 10:00:00,69.0,66.9,29.92,West,281,5.0,5.0,93,0.00,,,0.16,Wunderground v.1.15,2013-06-25 14:00:00,
2013-06-25 10:06:00,68.9,66.8,29.92,SW,223,5.0,8.0,93,0.00,,,0.17,Wunderground v.1.15,2013-06-25 14:06:00,
2013-06-25 10:12:00,68.7,66.6,29.90,West,268,5.0,7.0,93,0.00,,,0.17,Wunderground v.1.15,2013-06-25 14:12:00,
2013-06-25 10:18:00,68.8,66.7,29.89,West,267,4.0,7.0,93,0.05,,,0.18,Wunderground v.1.15,2013-06-25 14:18:00,
2013-06-25 10:23:00,68.8,66.7,29.88,WSW,240,3.0,6.0,93,0.05,,,0.18,Wunderground v.1.15,2013-06-25 14:23:00,
2013-06-25 10:28:00,68.9,67.1,29.88,WSW,240,3.0,6.0,94,0.04,,,0.18,Wunderground v.1.15,2013-06-25 14:28:00,
2013-06-25 10:33:00,68.9,66.8,29.88,WSW,244,4.0,7.0,93,0.00,,,0.18,Wunderground v.1.15,2013-06-25 14:33:00,
2013-06-25 10:38:00,68.9,66.8,29.85,South,190,5.0,7.0,93,0.00,,,0.18,Wunderground v.1.15,2013-06-25 14:38:00,
2013-06-25 10:44:00,69.2,67.4,29.83,South,190,4.0,5.0,94,0.00,,,0.18,Wunderground v.1.15,2013-06-25 14:44:00,
2013-06-25 10:50:00,69.2,67.1,29.83,South,191,2.0,2.0,93,0.00,,,0.18,Wunderground v.1.15,2013-06-25 14:50:00,
2013-06-25 10:56:00,69.7,67.9,29.83,SSW,197,3.0,7.0,94,0.00,,,0.18,Wunderground v.1.15,2013-06-25 14:56:00,
2013-06-25 11:02:00,69.9,67.8,29.84,South,189,4.0,7.0,93,0.00,,,0.18,Wunderground v.1.15,2013-06-25 15:02:00,
2013-06-25 11:07:00,70.1,67.7,29.84,SW,223,5.0,7.0,92,0.00,,,0.18,Wunderground v.1.15,2013-06-25 15:07:00,
2013-06-25 11:13:00,70.3,67.5,29.84,SSW,200,6.0,7.0,91,0.00,,,0.18,Wunderground v.1.15,2013-06-25 15:13:00,
2013-06-25 11:18:00,70.3,67.5,29.85,SSW,207,6.0,10.0,91,0.00,,,0.18,Wunderground v.1.15,2013-06-25 15:18:00,
2013-06-25 11:24:00,70.4,67.6,29.85,SSW,213,6.0,6.0,91,0.00,,,0.18,Wunderground v.1.15,2013-06-25 15:24:00,
2013-06-25 11:30:00,70.6,67.8,29.86,SW,225,5.0,7.0,91,0.00,,,0.18,Wunderground v.1.15,2013-06-25 15:30:00,
2013-06-25 11:35:00,70.8,68.0,29.87,SW,224,5.0,6.0,91,0.00,,,0.18,Wunderground v.1.15,2013-06-25 15:35:00,
2013-06-25 11:41:00,70.9,68.1,29.87,WSW,238,5.0,5.0,91,0.00,,,0.18,Wunderground v.1.15,2013-06-25 15:41:00,
2013-06-25 11:47:00,71.2,68.1,29.87,WSW,244,5.0,9.0,90,0.00,,,0.18,Wunderground v.1.15,2013-06-25 15:47:00,
2013-06-25 11:52:00,71.5,68.4,29.87,SW,215,5.0,5.0,90,0.00,,,0.18,Wunderground v.1.15,2013-06-25 15:52:00,
2013-06-25 11:58:00,71.9,68.5,29.87,SSW,206,5.0,7.0,89,0.00,,,0.18,Wunderground v.1.15,2013-06-25 15:58:00,
2013-06-25 12:04:00,72.2,68.1,29.87,SW,218,4.0,7.0,87,0.00,,,0.18,Wunderground v.1.15,2013-06-25 16:04:00,
2013-06-25 12:09:00,72.5,68.4,29.87,SW,228,5.0,7.0,87,0.00,,,0.18,Wunderground v.1.15,2013-06-25 16:09:00,
2013-06-25 12:15:00,72.9,68.5,29.88,WSW,242,4.0,8.0,86,0.00,,,0.18,Wunderground v.1.15,2013-06-25 16:15:00,
2013-06-25 12:20:00,73.1,68.3,29.88,SSW,211,5.0,10.0,85,0.00,,,0.18,Wunderground v.1.15,2013-06-25 16:20:00,
2013-06-25 12:25:00,73.5,68.4,29.88,WSW,248,6.0,10.0,84,0.00,,,0.18,Wunderground v.1.15,2013-06-25 16:25:00,
2013-06-25 12:31:00,73.7,67.9,29.88,SW,236,8.0,8.0,82,0.00,,,0.18,Wunderground v.1.15,2013-06-25 16:31:00,
2013-06-25 12:36:00,74.0,68.2,29.88,West,270,8.0,11.0,82,0.00,,,0.18,Wunderground v.1.15,2013-06-25 16:36:00,
2013-06-25 12:42:00,74.6,68.4,29.88,WSW,243,7.0,7.0,81,0.00,,,0.18,Wunderground v.1.15,2013-06-25 16:42:00,
2013-06-25 12:47:00,75.1,68.5,29.88,SW,233,6.0,11.0,80,0.00,,,0.18,Wunderground v.1.15,2013-06-25 16:47:00,
2013-06-25 12:53:00,75.7,68.7,29.88,SW,225,6.0,8.0,79,0.00,,,0.18,Wunderground v.1.15,2013-06-25 16:53:00,
2013-06-25 12:58:00,76.3,68.6,29.88,South,170,6.0,9.0,77,0.00,,,0.18,Wunderground v.1.15,2013-06-25 16:58:00,
2013-06-25 13:04:00,76.7,68.2,29.88,SW,234,6.0,12.0,75,0.00,,,0.18,Wunderground v.1.15,2013-06-25 17:04:00,
2013-06-25 13:09:00,77.2,68.7,29.87,SSW,212,7.0,12.0,75,0.00,,,0.18,Wunderground v.1.15,2013-06-25 17:09:00,
2013-06-25 13:15:00,76.9,68.4,29.87,SSW,209,6.0,7.0,75,0.00,,,0.18,Wunderground v.1.15,2013-06-25 17:15:00,
2013-06-25 13:21:00,77.1,68.6,29.87,SW,225,6.0,6.0,75,0.00,,,0.18,Wunderground v.1.15,2013-06-25 17:21:00,
2013-06-25 13:27:00,78.0,68.6,29.87,SW,217,7.0,12.0,73,0.00,,,0.18,Wunderground v.1.15,2013-06-25 17:27:00,
2013-06-25 13:32:00,78.0,68.6,29.86,SW,231,8.0,10.0,73,0.00,,,0.18,Wunderground v.1.15,2013-06-25 17:32:00,
2013-06-25 13:38:00,78.0,68.2,29.87,SW,227,9.0,13.0,72,0.00,,,0.18,Wunderground v.1.15,2013-06-25 17:38:00,
2013-06-25 13:43:00,78.5,68.7,29.87,SW,234,9.0,11.0,72,0.00,,,0.18,Wunderground v.1.15,2013-06-25 17:43:00,
2013-06-25 13:49:00,79.4,69.6,29.87,WSW,242,6.0,11.0,72,0.00,,,0.18,Wunderground v.1.15,2013-06-25 17:49:00,
2013-06-25 13:54:00,79.4,69.2,29.87,West,275,5.0,7.0,71,0.00,,,0.18,Wunderground v.1.15,2013-06-25 17:54:00,
2013-06-25 14:00:00,78.8,69.4,29.87,WSW,250,6.0,6.0,73,0.00,,,0.18,Wunderground v.1.15,2013-06-25 18:00:00,
2013-06-25 14:06:00,78.7,69.3,29.88,West,273,5.0,8.0,73,0.00,,,0.18,Wunderground v.1.15,2013-06-25 18:06:00,
2013-06-25 14:12:00,78.4,69.0,29.87,West,269,5.0,8.0,73,0.00,,,0.18,Wunderground v.1.15,2013-06-25 18:12:00,
2013-06-25 14:17:00,78.6,69.6,29.87,West,281,5.0,8.0,74,0.00,,,0.18,Wunderground v.1.15,2013-06-25 18:17:00,
2013-06-25 14:22:00,78.4,69.4,29.86,WNW,294,4.0,6.0,74,0.00,,,0.18,Wunderground v.1.15,2013-06-25 18:22:00,
2013-06-25 14:28:00,78.5,69.5,29.86,West,275,4.0,7.0,74,0.00,,,0.18,Wunderground v.1.15,2013-06-25 18:28:00,
2013-06-25 14:33:00,78.4,69.8,29.86,WNW,295,5.0,9.0,75,0.00,,,0.18,Wunderground v.1.15,2013-06-25 18:33:00,
2013-06-25 14:39:00,78.2,69.6,29.86,NW,309,6.0,9.0,75,0.00,,,0.18,Wunderground v.1.15,2013-06-25 18:39:00,
2013-06-25 14:45:00,78.5,69.9,29.85,WNW,303,5.0,7.0,75,0.00,,,0.18,Wunderground v.1.15,2013-06-25 18:45:00,
2013-06-25 14:51:00,78.6,70.0,29.84,WNW,302,4.0,4.0,75,0.00,,,0.18,Wunderground v.1.15,2013-06-25 18:51:00,
2013-06-25 14:56:00,79.0,69.6,29.83,NNE,18,3.0,4.0,73,0.00,,,0.18,Wunderground v.1.15,2013-06-25 18:56:00,
2013-06-25 15:02:00,79.4,69.6,29.82,SW,232,3.0,5.0,72,0.00,,,0.18,Wunderground v.1.15,2013-06-25 19:02:00,
2013-06-25 15:07:00,80.6,70.3,29.81,WSW,241,3.0,5.0,71,0.00,,,0.18,Wunderground v.1.15,2013-06-25 19:07:00,
2013-06-25 15:13:00,80.3,69.6,29.79,SW,224,2.0,5.0,70,0.00,,,0.18,Wunderground v.1.15,2013-06-25 19:13:00,
2013-06-25 15:18:00,81.1,70.0,29.79,SSW,211,4.0,9.0,69,0.00,,,0.18,Wunderground v.1.15,2013-06-25 19:18:00,
2013-06-25 15:24:00,81.7,70.5,29.78,South,178,6.0,8.0,69,0.00,,,0.18,Wunderground v.1.15,2013-06-25 19:24:00,
2013-06-25 15:30:00,81.8,69.3,29.79,SW,225,6.0,6.0,66,0.00,,,0.18,Wunderground v.1.15,2013-06-25 19:30:00,
2013-06-25 15:36:00,82.9,70.8,29.79,SSE,158,5.0,6.0,67,0.00,,,0.18,Wunderground v.1.15,2013-06-25 19:36:00,
2013-06-25 15:42:00,83.4,70.8,29.79,SSW,211,3.0,4.0,66,0.00,,,0.18,Wunderground v.1.15,2013-06-25 19:42:00,
2013-06-25 15:47:00,83.8,70.8,29.80,West,275,4.0,8.0,65,0.00,,,0.18,Wunderground v.1.15,2013-06-25 19:47:00,
2013-06-25 15:52:00,83.9,70.4,29.80,WNW,288,4.0,5.0,64,0.00,,,0.18,Wunderground v.1.15,2013-06-25 19:52:00,
2013-06-25 15:58:00,84.1,71.5,29.80,NW,313,4.0,7.0,66,0.00,,,0.18,Wunderground v.1.15,2013-06-25 19:58:00,
2013-06-25 16:04:00,82.6,70.5,29.79,NW,309,5.0,10.0,67,0.00,,,0.18,Wunderground v.1.15,2013-06-25 20:04:00,
2013-06-25 16:09:00,82.5,70.4,29.79,NNW,328,6.0,10.0,67,0.00,,,0.18,Wunderground v.1.15,2013-06-25 20:09:00,
2013-06-25 16:14:00,82.8,71.2,29.79,WNW,296,4.0,7.0,68,0.00,,,0.18,Wunderground v.1.15,2013-06-25 20:14:00,
2013-06-25 16:19:00,82.8,71.2,29.80,WNW,300,4.0,7.0,68,0.00,,,0.18,Wunderground v.1.15,2013-06-25 20:19:00,
2013-06-25 16:25:00,83.2,71.5,29.80,NW,317,4.0,7.0,68,0.00,,,0.18,Wunderground v.1.15,2013-06-25 20:25:00,
2013-06-25 16:30:00,83.1,71.9,29.81,WNW,297,4.0,4.0,69,0.00,,,0.18,Wunderground v.1.15,2013-06-25 20:30:00,
2013-06-25 16:35:00,83.0,71.8,29.81,WNW,300,4.0,6.0,69,0.00,,,0.18,Wunderground v.1.15,2013-06-25 20:35:00,
2013-06-25 16:41:00,83.4,71.7,29.81,NNW,327,4.0,6.0,68,0.00,,,0.18,Wunderground v.1.15,2013-06-25 20:41:00,
2013-06-25 16:47:00,83.2,71.5,29.81,NW,305,4.0,6.0,68,0.00,,,0.18,Wunderground v.1.15,2013-06-25 20:47:00,
2013-06-25 16:52:00,83.0,71.3,29.82,NW,304,4.0,6.0,68,0.00,,,0.18,Wunderground v.1.15,2013-06-25 20:52:00,
2013-06-25 16:58:00,82.4,71.2,29.82,West,273,4.0,7.0,69,0.00,,,0.18,Wunderground v.1.15,2013-06-25 20:58:00,
2013-06-25 17:03:00,83.3,71.6,29.82,WNW,284,4.0,6.0,68,0.00,,,0.18,Wunderground v.1.15,2013-06-25 21:03:00,
2013-06-25 17:08:00,83.3,71.2,29.82,WNW,287,4.0,6.0,67,0.00,,,0.18,Wunderground v.1.15,2013-06-25 21:08:00,
2013-06-25 17:14:00,83.5,70.9,29.81,NW,304,6.0,8.0,66,0.00,,,0.18,Wunderground v.1.15,2013-06-25 21:14:00,
2013-06-25 17:19:00,84.2,71.6,29.81,WNW,282,5.0,8.0,66,0.00,,,0.18,Wunderground v.1.15,2013-06-25 21:19:00,
2013-06-25 17:25:00,83.9,70.9,29.81,NW,304,6.0,6.0,65,0.00,,,0.18,Wunderground v.1.15,2013-06-25 21:25:00,
2013-06-25 17:30:00,83.7,70.7,29.81,NW,304,6.0,6.0,65,0.00,,,0.18,Wunderground v.1.15,2013-06-25 21:30:00,
2013-06-25 17:35:00,84.0,71.0,29.81,West,267,5.0,6.0,65,0.00,,,0.18,Wunderground v.1.15,2013-06-25 21:35:00,
2013-06-25 17:41:00,84.5,70.5,29.81,WNW,284,5.0,7.0,63,0.00,,,0.18,Wunderground v.1.15,2013-06-25 21:41:00,
2013-06-25 17:47:00,84.2,70.2,29.80,West,261,6.0,14.0,63,0.00,,,0.18,Wunderground v.1.15,2013-06-25 21:47:00,
2013-06-25 17:52:00,83.8,70.3,29.80,West,271,7.0,11.0,64,0.00,,,0.18,Wunderground v.1.15,2013-06-25 21:52:00,
2013-06-25 17:57:00,83.7,70.2,29.80,West,259,8.0,11.0,64,0.00,,,0.18,Wunderground v.1.15,2013-06-25 21:57:00,
2013-06-25 18:02:00,83.8,70.8,29.80,NW,315,7.0,7.0,65,0.00,,,0.18,Wunderground v.1.15,2013-06-25 22:02:00,
2013-06-25 18:08:00,83.6,70.1,29.79,WNW,291,8.0,12.0,64,0.00,,,0.18,Wunderground v.1.15,2013-06-25 22:08:00,
2013-06-25 18:13:00,83.4,69.9,29.79,WSW,238,8.0,11.0,64,0.00,,,0.18,Wunderground v.1.15,2013-06-25 22:13:00,
2013-06-25 18:19:00,83.5,69.6,29.78,WNW,292,8.0,15.0,63,0.00,,,0.18,Wunderground v.1.15,2013-06-25 22:19:00,
2013-06-25 18:24:00,83.2,69.3,29.78,WNW,282,8.0,11.0,63,0.00,,,0.18,Wunderground v.1.15,2013-06-25 22:24:00,
2013-06-25 18:29:00,82.8,69.4,29.77,West,275,8.0,11.0,64,0.00,,,0.18,Wunderground v.1.15,2013-06-25 22:29:00,
2013-06-25 18:34:00,82.4,69.4,29.77,WNW,300,7.0,9.0,65,0.00,,,0.18,Wunderground v.1.15,2013-06-25 22:34:00,
2013-06-25 18:40:00,81.8,71.1,29.78,NW,324,5.0,5.0,70,0.00,,,0.18,Wunderground v.1.15,2013-06-25 22:40:00,
2013-06-25 18:45:00,81.2,70.9,29.78,NNW,339,5.0,6.0,71,0.00,,,0.18,Wunderground v.1.15,2013-06-25 22:45:00,
2013-06-25 18:50:00,81.1,70.4,29.78,NW,325,5.0,5.0,70,0.00,,,0.18,Wunderground v.1.15,2013-06-25 22:50:00,
2013-06-25 18:55:00,81.0,70.3,29.78,NW,315,6.0,10.0,70,0.00,,,0.18,Wunderground v.1.15,2013-06-25 22:55:00,
2013-06-25 19:00:00,81.1,71.2,29.78,NW,317,5.0,5.0,72,0.00,,,0.18,Wunderground v.1.15,2013-06-25 23:00:00,
2013-06-25 19:06:00,80.9,71.4,29.79,North,355,5.0,9.0,73,0.00,,,0.18,Wunderground v.1.15,2013-06-25 23:06:00,
2013-06-25 19:11:00,80.4,71.3,29.79,NNW,333,5.0,5.0,74,0.00,,,0.18,Wunderground v.1.15,2013-06-25 23:11:00,
2013-06-25 19:16:00,80.2,71.2,29.79,NNW,338,4.0,6.0,74,0.00,,,0.18,Wunderground v.1.15,2013-06-25 23:16:00,
2013-06-25 19:21:00,79.9,70.9,29.79,NNW,327,4.0,4.0,74,0.00,,,0.18,Wunderground v.1.15,2013-06-25 23:21:00,
2013-06-25 19:27:00,79.7,70.7,29.79,North,350,4.0,7.0,74,0.00,,,0.18,Wunderground v.1.15,2013-06-25 23:27:00,
2013-06-25 19:32:00,79.4,70.4,29.79,NNW,343,5.0,6.0,74,0.00,,,0.18,Wunderground v.1.15,2013-06-25 23:32:00,
2013-06-25 19:37:00,79.2,70.6,29.79,NNW,338,4.0,6.0,75,0.00,,,0.18,Wunderground v.1.15,2013-06-25 23:37:00,
2013-06-25 19:42:00,79.2,70.6,29.80,North,5,3.0,7.0,75,0.00,,,0.18,Wunderground v.1.15,2013-06-25 23:42:00,
2013-06-25 19:47:00,79.0,70.0,29.80,NNW,348,4.0,7.0,74,0.00,,,0.18,Wunderground v.1.15,2013-06-25 23:47:00,
2013-06-25 19:53:00,78.8,69.8,29.80,NNW,348,5.0,6.0,74,0.00,,,0.18,Wunderground v.1.15,2013-06-25 23:53:00,
2013-06-25 19:58:00,78.5,69.9,29.80,North,349,5.0,7.0,75,0.00,,,0.18,Wunderground v.1.15,2013-06-25 23:58:00,
2013-06-25 20:04:00,78.3,69.7,29.79,NNW,336,5.0,5.0,75,0.00,,,0.18,Wunderground v.1.15,2013-06-26 00:04:00,
2013-06-25 20:09:00,78.1,69.9,29.80,NNW,336,3.0,5.0,76,0.00,,,0.18,Wunderground v.1.15,2013-06-26 00:09:00,
2013-06-25 20:14:00,78.0,69.8,29.79,NNW,336,2.0,4.0,76,0.00,,,0.18,Wunderground v.1.15,2013-06-26 00:14:00,
2013-06-25 20:19:00,77.8,70.0,29.79,NNW,336,1.0,5.0,77,0.00,,,0.18,Wunderground v.1.15,2013-06-26 00:19:00,
2013-06-25 20:25:00,77.6,69.8,29.78,NNW,336,2.0,3.0,77,0.00,,,0.18,Wunderground v.1.15,2013-06-26 00:25:00,
2013-06-25 20:30:00,77.5,69.7,29.78,NNW,336,2.0,2.0,77,0.00,,,0.18,Wunderground v.1.15,2013-06-26 00:30:00,
2013-06-25 20:35:00,77.3,69.5,29.78,NNW,336,2.0,2.0,77,0.00,,,0.18,Wunderground v.1.15,2013-06-26 00:35:00,
2013-06-25 20:40:00,77.1,69.7,29.79,NNW,336,2.0,2.0,78,0.00,,,0.18,Wunderground v.1.15,2013-06-26 00:40:00,
2013-06-25 20:46:00,77.0,69.6,29.79,NNW,336,2.0,4.0,78,0.00,,,0.18,Wunderground v.1.15,2013-06-26 00:46:00,
2013-06-25 20:51:00,76.9,69.9,29.78,NNW,336,1.0,1.0,79,0.00,,,0.18,Wunderground v.1.15,2013-06-26 00:51:00,
2013-06-25 20:57:00,76.8,69.8,29.79,NNW,336,1.0,2.0,79,0.00,,,0.18,Wunderground v.1.15,2013-06-26 00:57:00,
2013-06-25 21:02:00,76.8,69.8,29.78,NNW,336,1.0,1.0,79,0.00,,,0.18,Wunderground v.1.15,2013-06-26 01:02:00,
2013-06-25 21:07:00,76.9,69.5,29.79,NNW,336,1.0,1.0,78,0.00,,,0.18,Wunderground v.1.15,2013-06-26 01:07:00,
2013-06-25 21:13:00,76.9,69.9,29.79,NNW,336,0.0,2.0,79,0.00,,,0.18,Wunderground v.1.15,2013-06-26 01:13:00,
2013-06-25 21:18:00,76.7,69.7,29.80,NNW,336,0.0,2.0,79,0.00,,,0.18,Wunderground v.1.15,2013-06-26 01:18:00,
2013-06-25 21:23:00,76.7,70.1,29.80,NNW,336,0.0,0.0,80,0.00,,,0.18,Wunderground v.1.15,2013-06-26 01:23:00,
2013-06-25 21:28:00,76.6,70.0,29.80,NNW,336,0.0,0.0,80,0.00,,,0.19,Wunderground v.1.15,2013-06-26 01:28:00,
2013-06-25 21:34:00,76.5,71.3,29.80,NNW,336,0.0,0.0,84,0.10,,,0.20,Wunderground v.1.15,2013-06-26 01:34:00,
2013-06-25 21:40:00,75.1,70.6,29.80,NNW,336,0.0,0.0,86,0.13,,,0.22,Wunderground v.1.15,2013-06-26 01:40:00,
2013-06-25 21:45:00,74.7,70.9,29.80,NNW,336,0.0,0.0,88,0.12,,,0.22,Wunderground v.1.15,2013-06-26 01:45:00,
2013-06-25 21:50:00,74.3,70.5,29.80,NNW,336,0.0,2.0,88,0.06,,,0.22,Wunderground v.1.15,2013-06-26 01:50:00,
2013-06-25 21:56:00,74.4,71.3,29.80,NNW,336,0.0,0.0,90,0.04,,,0.22,Wunderground v.1.15,2013-06-26 01:56:00,
2013-06-25 22:01:00,74.0,70.9,29.79,NNW,336,0.0,0.0,90,0.04,,,0.23,Wunderground v.1.15,2013-06-26 02:01:00,
2013-06-25 22:07:00,73.8,71.3,29.79,NNW,336,0.0,0.0,92,0.04,,,0.23,Wunderground v.1.15,2013-06-26 02:07:00,
2013-06-25 22:12:00,73.7,71.5,29.79,NNW,336,0.0,0.0,93,0.04,,,0.24,Wunderground v.1.15,2013-06-26 02:12:00,
2013-06-25 22:17:00,74.1,71.9,29.80,NNW,336,0.0,1.0,93,0.04,,,0.24,Wunderground v.1.15,2013-06-26 02:17:00,
2013-06-25 22:22:00,74.1,71.9,29.80,NNW,336,0.0,0.0,93,0.06,,,0.25,Wunderground v.1.15,2013-06-26 02:22:00,
2013-06-25 22:28:00,74.1,71.9,29.80,NNW,336,0.0,0.0,93,0.06,,,0.25,Wunderground v.1.15,2013-06-26 02:28:00,
2013-06-25 22:33:00,74.2,72.0,29.81,NNW,336,0.0,0.0,93,0.05,,,0.25,Wunderground v.1.15,2013-06-26 02:33:00,
2013-06-25 22:39:00,74.1,71.9,29.81,NNW,336,0.0,1.0,93,0.05,,,0.26,Wunderground v.1.15,2013-06-26 02:39:00,
2013-06-25 22:44:00,73.8,71.6,29.81,NNW,336,1.0,2.0,93,0.05,,,0.26,Wunderground v.1.15,2013-06-26 02:44:00,
2013-06-25 22:49:00,73.8,71.6,29.81,NNW,336,1.0,2.0,93,0.05,,,0.27,Wunderground v.1.15,2013-06-26 02:49:00,
2013-06-25 22:55:00,74.0,71.8,29.80,NNW,336,1.0,2.0,93,0.09,,,0.28,Wunderground v.1.15,2013-06-26 02:55:00,
2013-06-25 23:00:00,74.0,71.8,29.80,NNW,336,1.0,1.0,93,0.07,,,0.28,Wunderground v.1.15,2013-06-26 03:00:00,
2013-06-25 23:05:00,73.8,71.6,29.80,NNW,336,2.0,3.0,93,0.05,,,0.28,Wunderground v.1.15,2013-06-26 03:05:00,
2013-06-25 23:11:00,73.8,71.6,29.80,NNW,336,2.0,2.0,93,0.04,,,0.29,Wunderground v.1.15,2013-06-26 03:11:00,
2013-06-25 23:16:00,73.7,71.5,29.80,NNW,336,2.0,3.0,93,0.04,,,0.29,Wunderground v.1.15,2013-06-26 03:16:00,
2013-06-25 23:22:00,73.5,71.4,29.80,NNW,336,2.0,3.0,93,0.04,,,0.29,Wunderground v.1.15,2013-06-26 03:22:00,
2013-06-25 23:27:00,73.5,71.4,29.80,NNW,336,2.0,3.0,93,0.00,,,0.29,Wunderground v.1.15,2013-06-26 03:27:00,
2013-06-25 23:32:00,73.4,71.3,29.81,NNW,336,2.0,3.0,93,0.00,,,0.29,Wunderground v.1.15,2013-06-26 03:32:00,
2013-06-25 23:37:00,73.6,71.4,29.82,NNW,336,3.0,4.0,93,0.00,,,0.29,Wunderground v.1.15,2013-06-26 03:37:00,
2013-06-25 23:43:00,73.5,71.4,29.83,NNW,330,3.0,6.0,93,0.00,,,0.29,Wunderground v.1.15,2013-06-26 03:43:00,
2013-06-25 23:48:00,73.6,71.4,29.83,SW,223,5.0,8.0,93,0.00,,,0.29,Wunderground v.1.15,2013-06-26 03:48:00,
2013-06-25 23:53:00,73.5,71.4,29.84,SW,225,6.0,7.0,93,0.00,,,0.29,Wunderground v.1.15,2013-06-26 03:53:00,
2013-06-25 23:59:00,73.0,70.9,29.84,SW,221,7.0,10.0,93,0.00,,,0.00,Wunderground v.1.15,2013-06-26 03:59:00,